{"data":{"norad_id":64009,"epoch":"2026-09-20T06:01:37.102368Z","epoch_age_seconds":165020,"freshness":"FRESH","line1":"1 64009U 25101R   26263.25112387  .00011140  00000+0  41345-3 0  9992","line2":"2 64009  43.0019 338.9422 0001573 152.8875 207.2059 15.27603183 76814","mean_motion":15.27603183,"eccentricity":0.0001573,"inclination_deg":43.0019,"raan_deg":338.9422,"arg_perigee_deg":152.8875,"mean_anomaly_deg":207.2059,"bstar":0.00041345,"rev_number":7681,"period_min":94.265318115667,"perigee_km":481.90042502197,"apogee_km":484.05893232908,"semimajor_km":6861.1166786755,"source":"CELESTRAK","updated_at":"2026-09-21T09:00:35.182795Z"}}